TimeCST,TemperatureF,Dew PointF,Humidity,Sea Level PressureIn,VisibilityMPH,Wind Direction,Wind SpeedMPH,Gust SpeedMPH,PrecipitationIn,Events,Conditions,WindDirDegrees,DateUTC
12:15 AM,39.2,21.7,50,30.27,10.0,South,10.4,-,N/A,,Clear,190,2013-11-08 06:15:00
12:35 AM,41.2,21.7,46,30.27,10.0,SSW,12.7,-,N/A,,Clear,200,2013-11-08 06:35:00
12:55 AM,41.0,21.6,46,30.26,10.0,SSW,12.7,-,N/A,,Clear,200,2013-11-08 06:55:00
1:15 AM,40.1,21.6,48,30.26,10.0,SSW,15.0,-,N/A,,Clear,200,2013-11-08 07:15:00
1:35 AM,40.6,20.8,45,30.25,10.0,SSW,11.5,-,N/A,,Clear,210,2013-11-08 07:35:00
1:55 AM,41.2,20.3,43,30.25,10.0,SSW,13.8,-,N/A,,Clear,210,2013-11-08 07:55:00
2:15 AM,39.2,20.3,47,30.24,10.0,SSW,12.7,-,N/A,,Clear,210,2013-11-08 08:15:00
2:35 AM,40.1,20.1,45,30.23,10.0,SSW,16.1,21.9,N/A,,Clear,210,2013-11-08 08:35:00
2:55 AM,40.5,19.8,44,30.23,10.0,SSW,13.8,-,N/A,,Clear,210,2013-11-08 08:55:00
3:15 AM,40.6,19.4,43,30.21,10.0,SSW,18.4,24.2,N/A,,Clear,210,2013-11-08 09:15:00
3:35 AM,40.1,19.4,43,30.21,10.0,SSW,18.4,24.2,N/A,,Clear,210,2013-11-08 09:35:00
3:55 AM,39.2,19.4,45,30.21,10.0,SSW,17.3,-,N/A,,Clear,200,2013-11-08 09:55:00
4:15 AM,38.8,19.4,46,30.19,10.0,SSW,15.0,-,N/A,,Clear,210,2013-11-08 10:15:00
4:35 AM,37.6,19.4,48,30.19,10.0,SSW,15.0,-,N/A,,Clear,210,2013-11-08 10:35:00
4:55 AM,36.7,19.4,50,30.18,10.0,SSW,15.0,-,N/A,,Clear,210,2013-11-08 10:55:00
5:15 AM,36.1,19.6,51,30.18,10.0,SSW,13.8,-,N/A,,Clear,210,2013-11-08 11:15:00
5:35 AM,36.1,19.8,51,30.17,10.0,SSW,16.1,-,N/A,,Clear,210,2013-11-08 11:35:00
5:55 AM,35.8,20.1,53,30.16,10.0,SSW,13.8,-,N/A,,Clear,210,2013-11-08 11:55:00
6:15 AM,36.7,20.1,51,30.16,10.0,SSW,13.8,-,N/A,,Clear,210,2013-11-08 12:15:00
6:35 AM,37.2,20.5,51,30.16,10.0,SSW,11.5,-,N/A,,Clear,210,2013-11-08 12:35:00
6:55 AM,39.2,20.3,47,30.16,10.0,SSW,15.0,20.7,N/A,,Clear,210,2013-11-08 12:55:00
7:15 AM,39.7,19.6,44,30.15,10.0,SW,17.3,23.0,N/A,,Clear,220,2013-11-08 13:15:00
7:35 AM,42.6,17.6,37,30.14,10.0,SW,24.2,31.1,N/A,,Clear,220,2013-11-08 13:35:00
7:55 AM,43.9,17.6,35,30.14,10.0,SSW,25.3,31.1,N/A,,Clear,210,2013-11-08 13:55:00
8:15 AM,46.4,16.9,31,30.14,10.0,SW,28.8,38.0,N/A,,Clear,220,2013-11-08 14:15:00
8:35 AM,48.2,15.6,27,30.14,10.0,SW,29.9,36.8,N/A,,Clear,220,2013-11-08 14:35:00
8:55 AM,50.2,15.8,26,30.14,10.0,SW,27.6,35.7,N/A,,Clear,220,2013-11-08 14:55:00
9:15 AM,52.7,15.3,23,30.14,10.0,SW,25.3,39.1,N/A,,Clear,220,2013-11-08 15:15:00
9:35 AM,54.3,15.3,21,30.14,10.0,SW,24.2,34.5,N/A,,Clear,220,2013-11-08 15:35:00
9:55 AM,56.1,13.8,19,30.13,10.0,SW,23.0,36.8,N/A,,Clear,220,2013-11-08 15:55:00
10:15 AM,58.5,13.3,17,30.11,10.0,SW,23.0,36.8,N/A,,Clear,220,2013-11-08 16:15:00
10:35 AM,59.9,13.8,16,30.10,10.0,SW,28.8,36.8,N/A,,Clear,220,2013-11-08 16:35:00
10:55 AM,60.6,12.7,15,30.08,10.0,SSW,29.9,41.4,N/A,,Clear,210,2013-11-08 16:55:00
11:15 AM,62.1,12.0,14,30.07,10.0,SSW,28.8,40.3,N/A,,Clear,210,2013-11-08 17:15:00
11:35 AM,63.5,11.3,13,30.06,10.0,SSW,29.9,36.8,N/A,,Clear,210,2013-11-08 17:35:00
11:55 AM,65.5,12.7,13,30.06,10.0,SSW,26.5,36.8,N/A,,Clear,210,2013-11-08 17:55:00
12:15 PM,66.4,14.2,13,30.05,10.0,SSW,26.5,35.7,N/A,,Clear,210,2013-11-08 18:15:00
12:35 PM,66.4,14.4,13,30.03,10.0,SSW,28.8,38.0,N/A,,Clear,210,2013-11-08 18:35:00
12:55 PM,67.5,14.7,13,30.02,10.0,SSW,29.9,35.7,N/A,,Clear,210,2013-11-08 18:55:00
1:15 PM,67.5,15.4,14,30.00,10.0,SSW,29.9,36.8,N/A,,Clear,210,2013-11-08 19:15:00
1:35 PM,66.6,14.9,14,29.99,10.0,SSW,29.9,36.8,N/A,,Clear,200,2013-11-08 19:35:00
1:55 PM,67.5,14.9,13,29.99,10.0,SSW,26.5,35.7,N/A,,Clear,210,2013-11-08 19:55:00
2:15 PM,68.2,14.9,13,29.97,10.0,SSW,27.6,34.5,N/A,,Clear,210,2013-11-08 20:15:00
2:35 PM,68.2,15.8,13,29.96,10.0,SSW,31.1,39.1,N/A,,Clear,210,2013-11-08 20:35:00
2:55 PM,68.0,17.2,14,29.96,10.0,SSW,25.3,35.7,N/A,,Clear,210,2013-11-08 20:55:00
3:15 PM,67.5,18.1,15,29.96,10.0,SSW,26.5,33.4,N/A,,Clear,200,2013-11-08 21:15:00
3:35 PM,67.5,18.0,15,29.96,10.0,SSW,25.3,35.7,N/A,,Clear,210,2013-11-08 21:35:00
3:55 PM,67.1,20.8,17,29.95,10.0,SSW,23.0,33.4,N/A,,Clear,200,2013-11-08 21:55:00
4:15 PM,65.8,21.4,18,29.95,10.0,SSW,24.2,34.5,N/A,,Clear,200,2013-11-08 22:15:00
4:35 PM,65.7,23.7,20,29.95,10.0,SSW,20.7,33.4,N/A,,Clear,210,2013-11-08 22:35:00
4:55 PM,64.8,24.4,22,29.94,10.0,SSW,23.0,29.9,N/A,,Clear,210,2013-11-08 22:55:00
5:15 PM,62.8,23.7,23,29.94,10.0,SSW,20.7,26.5,N/A,,Clear,200,2013-11-08 23:15:00
5:35 PM,60.1,24.6,26,29.93,10.0,South,19.6,28.8,N/A,,Clear,190,2013-11-08 23:35:00
5:55 PM,58.1,25.2,28,29.93,10.0,SSW,17.3,23.0,N/A,,Clear,200,2013-11-08 23:55:00
6:15 PM,57.0,26.2,31,29.92,10.0,South,20.7,25.3,N/A,,Clear,190,2013-11-09 00:15:00
6:35 PM,56.1,27.0,33,29.93,10.0,South,16.1,24.2,N/A,,Clear,190,2013-11-09 00:35:00
6:55 PM,54.7,27.1,35,29.95,10.0,South,16.1,-,N/A,,Clear,190,2013-11-09 00:55:00
7:15 PM,53.4,27.5,37,29.96,10.0,South,13.8,-,N/A,,Clear,170,2013-11-09 01:15:00
7:35 PM,52.2,28.0,39,29.96,10.0,South,13.8,-,N/A,,Clear,180,2013-11-09 01:35:00
7:55 PM,51.8,28.0,40,29.96,10.0,South,16.1,21.9,N/A,,Clear,190,2013-11-09 01:55:00
8:15 PM,50.9,28.2,42,29.94,10.0,South,19.6,-,N/A,,Clear,190,2013-11-09 02:15:00
8:35 PM,50.0,29.1,45,29.94,10.0,South,17.3,-,N/A,,Clear,190,2013-11-09 02:35:00
8:55 PM,49.1,30.2,48,29.94,10.0,SSW,17.3,23.0,N/A,,Clear,200,2013-11-09 02:55:00
9:15 PM,49.5,32.2,51,29.95,10.0,South,18.4,23.0,N/A,,Clear,190,2013-11-09 03:15:00
9:35 PM,49.1,34.2,56,29.94,10.0,South,18.4,23.0,N/A,,Clear,190,2013-11-09 03:35:00
9:55 PM,49.5,36.5,61,29.95,10.0,South,17.3,23.0,N/A,,Clear,190,2013-11-09 03:55:00
10:15 PM,48.7,37.6,65,29.95,10.0,South,17.3,23.0,N/A,,Clear,190,2013-11-09 04:15:00
10:35 PM,48.6,38.3,68,29.95,10.0,South,18.4,-,N/A,,Clear,190,2013-11-09 04:35:00
10:55 PM,47.7,38.7,71,29.95,10.0,South,21.9,27.6,N/A,,Clear,190,2013-11-09 04:55:00
11:15 PM,47.3,39.4,74,29.95,10.0,South,19.6,24.2,N/A,,Clear,190,2013-11-09 05:15:00
11:35 PM,47.3,40.1,76,29.95,10.0,SSW,19.6,27.6,N/A,,Clear,200,2013-11-09 05:35:00
11:55 PM,46.8,40.3,78,29.94,10.0,South,18.4,24.2,N/A,,Clear,190,2013-11-09 05:55:00